Lexington, NE

7:54 PM CST on November 20, 2019 (GMT -0600)
Kelly

Weather History for KLXN - October, 2019

Change the Weather History Date:

Sunday, October 20, 2019

  Actual Average Record
Temperature  
Mean Temperature 53 °F -  
Max Temperature 62 °F 60 °F 83 °F (2012)
Min Temperature 43 °F 35 °F 23 °F (2011)
Degree Days  
Heating Degree Days 12    
Growing Degree Days 3 (Base 50)    
Moisture  
Dew Point 32 °F    
Average Humidity 48    
Maximum Humidity 70    
Minimum Humidity 22    
Precipitation  
Precipitation 0.00 in - - ()
Sea Level Pressure  
Sea Level Pressure 29.60 in    
Wind  
Wind Speed 13 mph (SSW)    
Max Wind Speed 29 mph    
Max Gust Speed 33 mph    
Visibility 10 miles    
Events      
Averages and records for this station are not official NWS values.
T = Trace of Precipitation, MM = Missing Value Source: NWS Daily Summary

Daily Weather History Graph

Daily Weather History Graph

Search for Another Location

Airport or City:

Astronomy

Oct. 20, 2019 Rise Set
Actual Time 7:55 AM CDT 6:51 PM CDT
Civil Twilight 7:27 AM CDT 7:19 PM CDT
Nautical Twilight 6:55 AM CDT 7:51 PM CDT
Astronomical Twilight 6:24 AM CDT 8:22 PM CDT
Moon No Moon Rise 2:26 PM CDT (10/20)
Length of Visible Light 11h 51m
Length of Day
10h 55m
Waning Gibbous, 59% of the Moon is Illuminated
Oct 20
Waning Gibbous
Oct 21
Last Quarter
Oct 27
New
Nov 4
First Quarter
Nov 12
Full

Hourly Weather History & Observations

Time (CDT) Temp. Windchill Dew Point Humidity Pressure Visibility Wind Dir Wind Speed Gust Speed Precip Events Conditions
12:15 AM 45.1 °F 41.4 °F 29.8 °F 55% 29.72 in 10.0 mi SE 6.9 mph - N/A   Clear
12:35 AM 44.6 °F 41.4 °F 30.9 °F 59% 29.72 in 10.0 mi SSE 5.8 mph - N/A   Clear
12:55 AM 44.6 °F 40.2 °F 31.8 °F 61% 29.72 in 10.0 mi SSE 8.1 mph - N/A   Clear
1:15 AM 45.7 °F 42.0 °F 32.5 °F 60% 29.71 in 10.0 mi SE 6.9 mph - N/A   Clear
1:35 AM 45.3 °F 41.6 °F 33.3 °F 63% 29.70 in 10.0 mi ESE 6.9 mph - N/A   Clear
1:55 AM 46.9 °F - 34.2 °F 61% 29.69 in 10.0 mi SE 9.2 mph - N/A   Clear
2:15 AM 48.0 °F - 34.5 °F 60% 29.69 in 10.0 mi SE 11.5 mph - N/A   Clear
2:35 AM 48.0 °F - 34.5 °F 60% 29.68 in 10.0 mi SE 12.7 mph - N/A   Clear
2:55 AM 45.3 °F 40.1 °F 34.2 °F 65% 29.67 in 10.0 mi SSE 10.4 mph 16.1 mph N/A   Clear
3:15 AM 49.5 °F - 34.7 °F 57% 29.66 in 10.0 mi SSE 18.4 mph 23.0 mph N/A   Clear
3:35 AM 49.1 °F - 34.7 °F 58% 29.65 in 10.0 mi SSE 17.3 mph - N/A   Clear
3:55 AM 49.3 °F - 34.7 °F 57% 29.63 in 10.0 mi SSE 16.1 mph - N/A   Clear
4:15 AM 50.0 °F - 34.2 °F 55% 29.63 in 10.0 mi SSE 17.3 mph 24.2 mph N/A   Clear
4:35 AM 50.5 °F - 34.2 °F 53% 29.62 in 10.0 mi SSE 18.4 mph 24.2 mph N/A   Clear
4:55 AM 50.9 °F - 34.2 °F 53% 29.61 in 10.0 mi SSE 17.3 mph 23.0 mph N/A   Clear
5:15 AM 51.1 °F - 34.2 °F 52% 29.61 in 10.0 mi SSE 18.4 mph 25.3 mph N/A   Clear
5:35 AM 50.4 °F - 34.7 °F 55% 29.61 in 10.0 mi SSE 19.6 mph 24.2 mph N/A   Clear
5:55 AM 50.0 °F - 34.7 °F 56% 29.60 in 10.0 mi SSE 15.0 mph - N/A   Clear
6:15 AM 49.3 °F - 35.2 °F 58% 29.59 in 10.0 mi SE 13.8 mph 19.6 mph N/A   Clear
6:35 AM 49.1 °F - 35.1 °F 58% 29.59 in 10.0 mi SSE 16.1 mph 20.7 mph N/A   Clear
6:55 AM 49.6 °F - 35.2 °F 58% 29.59 in 10.0 mi SSE 16.1 mph 25.3 mph N/A   Clear
7:15 AM 49.8 °F - 35.4 °F 58% 29.58 in 10.0 mi SSE 15.0 mph - N/A   Clear
7:35 AM 50.0 °F - 35.6 °F 58% 29.59 in 10.0 mi SSE 11.5 mph - N/A   Clear
7:55 AM 51.8 °F - 35.6 °F 54% 29.59 in 10.0 mi SSE 17.3 mph 23.0 mph N/A   Clear
8:15 AM 52.2 °F - 35.8 °F 54% 29.59 in 10.0 mi South 18.4 mph 28.8 mph N/A   Clear
8:55 AM 51.4 °F - 36.7 °F 57% 29.61 in 10.0 mi South 11.5 mph 16.1 mph N/A   Clear
9:15 AM 52.5 °F - 37.2 °F 56% 29.61 in 10.0 mi South 10.4 mph - N/A   Clear
9:30 AM 53.6 °F - 37.4 °F 54% 29.61 in 10.0 mi South 13.8 mph 20.7 mph N/A   Clear
9:55 AM 54.0 °F - 37.9 °F 55% 29.62 in 10.0 mi South 16.1 mph 20.7 mph N/A   Clear
10:15 AM 54.5 °F - 38.5 °F 55% 29.61 in 10.0 mi South 18.4 mph 25.3 mph N/A   Clear
10:35 AM 55.4 °F - 39.2 °F 54% 29.61 in 10.0 mi South 18.4 mph - N/A   Clear
10:55 AM 55.8 °F - 39.4 °F 54% 29.60 in 10.0 mi South 20.7 mph 26.5 mph N/A   Clear
11:15 AM 56.7 °F - 39.7 °F 53% 29.60 in 10.0 mi South 16.1 mph 25.3 mph N/A   Clear
11:35 AM 57.7 °F - 39.2 °F 50% 29.60 in 10.0 mi SSW 18.4 mph 24.2 mph N/A   Clear
11:55 AM 57.4 °F - 37.8 °F 48% 29.59 in 10.0 mi SW 13.8 mph - N/A   Scattered Clouds
12:15 PM 56.7 °F - 35.2 °F 45% 29.60 in 10.0 mi WSW 10.4 mph 20.7 mph N/A   Scattered Clouds
12:35 PM 57.2 °F - 32.2 °F 39% 29.60 in 10.0 mi WNW 15.0 mph 20.7 mph N/A   Clear
12:55 PM 57.9 °F - 30.6 °F 35% 29.59 in 10.0 mi WNW 12.7 mph 19.6 mph N/A   Clear
1:15 PM 58.3 °F - 28.2 °F 32% 29.58 in 10.0 mi WNW 13.8 mph - N/A   Clear
1:35 PM 58.6 °F - 27.3 °F 30% 29.59 in 10.0 mi WNW 11.5 mph - N/A   Clear
1:55 PM 59.4 °F - 27.7 °F 30% 29.58 in 10.0 mi WNW 13.8 mph 18.4 mph N/A   Clear
2:15 PM 59.4 °F - 26.6 °F 29% 29.57 in 10.0 mi WNW 11.5 mph 19.6 mph N/A   Clear
2:35 PM 60.6 °F - 27.1 °F 28% 29.56 in 10.0 mi West 11.5 mph 18.4 mph N/A   Clear
2:55 PM 62.6 °F - 25.5 °F 24% 29.56 in 10.0 mi West 21.9 mph 25.3 mph N/A   Clear
3:15 PM 62.2 °F - 22.5 °F 22% 29.56 in 10.0 mi WSW 21.9 mph 31.1 mph N/A   Clear
3:35 PM 61.5 °F - 21.9 °F 22% 29.55 in 10.0 mi WSW 18.4 mph 21.9 mph N/A   Clear
3:55 PM 59.9 °F - 21.9 °F 23% 29.54 in 10.0 mi SW 12.7 mph 21.9 mph N/A   Scattered Clouds
4:15 PM 58.3 °F - 21.9 °F 25% 29.55 in 10.0 mi SW 15.0 mph - N/A   Overcast
4:35 PM 56.8 °F - 22.5 °F 26% 29.57 in 10.0 mi WSW 17.3 mph 28.8 mph N/A   Mostly Cloudy
4:55 PM 57.7 °F - 23.5 °F 27% 29.56 in 10.0 mi WSW 11.5 mph - N/A   Clear
5:15 PM 58.6 °F - 23.0 °F 25% 29.56 in 10.0 mi WSW 11.5 mph 23.0 mph N/A   Clear
5:35 PM 58.6 °F - 22.8 °F 25% 29.55 in 10.0 mi SW 11.5 mph 20.7 mph N/A   Clear
5:55 PM 58.5 °F - 23.0 °F 26% 29.55 in 10.0 mi WSW 17.3 mph 24.2 mph N/A   Clear
6:15 PM 57.2 °F - 23.9 °F 28% 29.55 in 10.0 mi WSW 12.7 mph - N/A   Clear
6:35 PM 57.2 °F - 23.9 °F 28% 29.55 in 10.0 mi WSW 12.7 mph 18.4 mph N/A   Mostly Cloudy
6:55 PM 55.0 °F - 27.0 °F 34% 29.56 in 10.0 mi WSW 13.8 mph - N/A   Mostly Cloudy
7:15 PM 53.2 °F - 28.8 °F 39% 29.57 in 10.0 mi WSW 12.7 mph 24.2 mph N/A   Scattered Clouds
7:35 PM 52.0 °F - 30.2 °F 43% 29.57 in 10.0 mi West 18.4 mph 33.4 mph N/A   Clear
7:55 PM 50.4 °F - 30.7 °F 47% 29.56 in 10.0 mi WSW 10.4 mph - N/A   Clear
8:15 PM 49.3 °F - 31.1 °F 50% 29.56 in 10.0 mi WSW 11.5 mph - N/A   Clear
8:35 PM 48.0 °F - 31.5 °F 53% 29.56 in 10.0 mi WSW 9.2 mph - N/A   Clear
8:55 PM 47.5 °F - 32.0 °F 55% 29.56 in 10.0 mi WSW 11.5 mph - N/A   Clear
9:15 PM 47.1 °F - 32.4 °F 57% 29.57 in 10.0 mi WSW 11.5 mph - N/A   Scattered Clouds
9:35 PM 46.0 °F 41.4 °F 32.9 °F 60% 29.57 in 10.0 mi WSW 9.2 mph - N/A   Scattered Clouds
9:55 PM 46.4 °F 39.0 °F 32.7 °F 59% 29.57 in 10.0 mi West 19.6 mph 25.3 mph N/A   Mostly Cloudy
10:15 PM 46.0 °F 39.0 °F 33.1 °F 61% 29.57 in 10.0 mi West 17.3 mph 24.2 mph N/A   Overcast
10:35 PM 45.9 °F 37.8 °F 34.0 °F 63% 29.57 in 10.0 mi West 21.9 mph 31.1 mph N/A   Overcast
10:55 PM 45.7 °F 37.1 °F 35.1 °F 66% 29.57 in 10.0 mi WNW 24.2 mph 29.9 mph N/A   Overcast
11:15 PM 45.3 °F 36.7 °F 35.6 °F 69% 29.57 in 10.0 mi WNW 24.2 mph 32.2 mph N/A   Overcast
11:35 PM 44.6 °F 34.9 °F 35.1 °F 69% 29.56 in 10.0 mi WNW 28.8 mph 33.4 mph N/A   Overcast
11:55 PM 43.2 °F 33.6 °F 33.8 °F 70% 29.56 in 10.0 mi WNW 25.3 mph 33.4 mph N/A   Overcast